Jaipur, India

10:29 AM IST on March 30, 2017 (GMT +0530)
Jaipur

Weather History for VIJP - April, 2013

Change the Weather History Date:

Thursday, April 11, 2013

  Actual Average Record
Temperature  
Mean Temperature 86 °F -  
Max Temperature 95 °F - - ()
Min Temperature 78 °F - - ()
Cooling Degree Days 22    
Growing Degree Days 36 (Base 50)    
Moisture  
Dew Point 45 °F    
Average Humidity 22    
Maximum Humidity 34    
Minimum Humidity 8    
Precipitation  
Precipitation 0.00 in - - ()
Sea Level Pressure  
Sea Level Pressure 29.79 in    
Wind  
Wind Speed 4 mph ()    
Max Wind Speed 9 mph    
Max Gust Speed -    
Visibility 2.2 miles    
Events      
T = Trace of Precipitation, MM = Missing Value Source: Averaged Metar Reports

Daily Weather History Graph

Daily Weather History Graph

Search for Another Location

Airport or City:

Trip Planner

Search our weather history database for the weather conditions in past years. The results will help you decide how hot, cold, wet, or windy it might be!

Date:

Astronomy

Apr. 11, 2013 Rise Set
Actual Time 6:07 AM IST 6:48 PM IST
Civil Twilight 5:43 AM IST 7:12 PM IST
Nautical Twilight 5:15 AM IST 7:40 PM IST
Astronomical Twilight 4:47 AM IST 8:08 PM IST
Moon 6:27 AM IST (4/11) 7:48 PM IST (4/11)
Length of Visible Light 13h 28m
Length of Day
12h 41m
New Moon, 1% of the Moon is Illuminated
Apr 11
New Moon
Apr 18
First Quarter
Apr 26
Full
May 2
Last Quarter
May 10
New

Hourly Weather History & Observations

Time (IST) Temp. Dew Point Humidity Pressure Visibility Wind Dir Wind Speed Gust Speed Precip Events Conditions
12:00 AM 84.2 °F 46.4 °F 27% 29.80 in 2.2 mi Variable 4.6 mph - N/A   Haze
1:00 AM 82.4 °F 48.2 °F 30% 29.80 in 2.2 mi Calm Calm - N/A   Haze
2:00 AM 82.4 °F 48.2 °F 30% 29.80 in 2.2 mi Calm Calm - N/A   Haze
2:30 AM 80 °F 48 °F 22% 29.73 in 1 mi Calm Calm - -   Haze
3:00 AM 82.4 °F 48.2 °F 30% 29.80 in 2.2 mi Calm Calm - N/A   Haze
4:00 AM 82.4 °F 48.2 °F 30% 29.80 in 2.2 mi Calm Calm - N/A   Haze
5:00 AM 80.6 °F 46.4 °F 30% 29.80 in 2.2 mi NNE 3.5 mph - N/A   Haze
5:30 AM 79 °F 48 °F 24% 29.74 in 1 mi NE 6.9 mph - -   Haze
5:30 AM 80.6 °F 46.4 °F 30% 29.80 in 2.2 mi NE 8.1 mph - N/A   Haze
6:00 AM 78.8 °F 48.2 °F 34% 29.80 in 2.2 mi ENE 5.8 mph - N/A   Haze
7:00 AM 78.8 °F 48.2 °F 34% 29.83 in 2.5 mi NE 5.8 mph - N/A   Haze
8:00 AM 82.4 °F 48.2 °F 30% 29.86 in 2.5 mi ENE 4.6 mph - N/A   Haze
9:00 AM 86.0 °F 48.2 °F 27% 29.86 in 2.5 mi ENE 5.8 mph - N/A   Haze
10:00 AM 87.8 °F 46.4 °F 24% 29.86 in 2.5 mi East 5.8 mph - N/A   Haze
11:00 AM 93.2 °F 44.6 °F 19% 29.86 in 2.5 mi Variable 3.5 mph - N/A   Haze
11:30 AM 93 °F 42 °F 9% 29.76 in 2 mi SE 5.8 mph - -   Haze
12:00 PM 91.4 °F 41.0 °F 17% 29.86 in 2.5 mi Variable 6.9 mph - N/A   Haze
1:00 PM 93.2 °F 41.0 °F 16% 29.83 in 2.5 mi Variable 5.8 mph - N/A   Haze
2:00 PM 95.0 °F 41.0 °F 15% 29.80 in 2.5 mi SW 6.9 mph - N/A   Haze
3:00 PM 95.0 °F 42.8 °F 16% 29.77 in 2.5 mi Variable 6.9 mph - N/A   Haze
4:00 PM 95.0 °F 39.2 °F 14% 29.74 in 2.5 mi Variable 9.2 mph - N/A   Haze
5:00 PM 93.2 °F 39.2 °F 15% 29.74 in 2.5 mi WNW 6.9 mph - N/A   Haze
5:30 PM 95 °F 41 °F 8% 29.67 in 2 mi WNW 4.6 mph - -   Haze
6:00 PM 93.2 °F 39.2 °F 15% 29.77 in 2.5 mi NW 5.8 mph - N/A   Haze
7:00 PM 91.4 °F 41.0 °F 17% 29.77 in 2.2 mi NW 3.5 mph - N/A   Haze
8:00 PM 89.6 °F 42.8 °F 20% 29.80 in 2.2 mi Variable 3.5 mph - N/A   Haze
8:30 PM 89 °F 44 °F 12% 29.73 in 1 mi Calm Calm - -   Haze
9:00 PM 87.8 °F 44.6 °F 22% 29.80 in 2.2 mi Calm Calm - N/A   Haze
10:00 PM 87.8 °F 42.8 °F 21% 29.80 in 2.2 mi Variable 6.9 mph - N/A   Haze
11:00 PM 86.0 °F 44.6 °F 23% 29.80 in 2.2 mi ENE 6.9 mph - N/A   Haze
11:30 PM 86.0 °F 44.6 °F 23% 29.80 in 2.2 mi NE 6.9 mph - N/A   Haze